Location: Arclight Observatory
(36.5667°N, 87.3333°W)
Time: 18:30:06
(UTC-06:00)

Hubble Space Telescope - Visible Passes

Search period start: 20 December 2014 00:00
Search period end: 30 December 2014 00:00
Orbit: 545 x 549 km, 28.5° (Epoch: 19 December)

Date Brightness Start Highest point End Pass type
(mag) Time Alt. Az. Time Alt. Az. Time Alt. Az.
20 Dec 2.8 17:05:30 10° WSW 17:08:57 25° S 17:12:24 10° SE visible
20 Dec 3.3 18:47:27 10° SW 18:49:45 15° SSW 18:50:50 13° S visible
21 Dec 3.5 18:40:18 10° SW 18:41:53 12° SSW 18:43:27 10° S visible
